Showing default

EUTE KONNECT VHTS, 53765

Orbit data source: Space-Track

EUTE KONNECT VHTS, 53765 is a payload satellite owned by EutelsatSA (FR) in GEO that was launched on Wed, 07 Sep 2022 UTC via an ARIANE 5ECA+ launch vehicle from the French Guiana (FRGUI). Payload-class satellites include a variety of spacecraft equipped with specific instruments for various scientific and technological missions. These include communications satellites like Starlink; space stations such as the ISS; scientific satellites like the Hubble; Earth observation satellites from companies like Planet Labs, Umbra, and HawkEye 360; GPS; miniature CubeSats for education and research; and military/defense satellites.

Not visible in the next 10 days
Identifier
53765, 2022-110A
Orbit
GEO
Country
Flag of FRFR / EUTE
Related business
Manufacturer
Thales Alenia
Mission
Operational Commercial Communications
Bus & Motor
SPACEBUS NEO200, XPS/PPS-5000
Mass
6,500 kg wet, ~6,000 kg dry
Launch date (UTC)
2022-09-07 (4 years ago)
Launch vehicle
ARIANE 5ECA+
Launch site
French Guiana (FRGUI)
Object type
Payload
Rocket body
Debris
Shape & HBR
Box + 2 Pan, 22.5 m
Radar Cross Section
75.815 m², Large (>1 m²)

Expand to show TLE details & history
Last TLE update: 2 days ago

TLE from 2 days ago
0 EUTE KONNECT VHTS
1 53765U 22110A   26171.03604377  .00000012  00000-0  00000-0 0  9992
2 53765   0.0641  99.9422 0002365 345.5386 198.4343  1.00272019  6868
Epoch: 2026-06-20T00:51Z
TLE epoch observation values (Epoch: 2026-06-20T00:51:54.181Z)
Latitude
-0.02382°
Longitude
2.68696°
Altitude
35,795.524 km
Speed
3.074 km/s
True Right ascension
18h 55m 40s
True Declination
0° 01' 26"
Sunlit
Object was in daylight at epoch
Visualization orbit readout
Latitude
Unknown
Longitude
Unknown
Altitude
Unknown
Speed
Unknown
Apparent Right ascension
Unknown
Apparent Declination
Unknown
Sunlit
N/A
Visualization observer readout
Local Sidereal Time
21:26:35
Azimuth
Unknown
Elevation
Unknown
Doppler factor
Unknown
Orbital elements
Apogee altitude
35,797.572 km
Perigee altitude
35,777.628 km
Semi-major axis
42,165.737 km
Eccentricity
0.00024
Inclination
0.0641°
RAAN
99.9422°
Arg. of periapsis
345.5386°
True anomaly
198.42573°
Mean anomaly
198.4343°
Eccentric anomaly
198.43002°
Mean motion
0.25067 °/min
Orbital period
1,436.15 mins
BSTAR
0
Loading maneuver chart data...
Computing Atmospheric mass density...
Loading historical data...
Loading historical data...
Loading historical data...
Loading historical data...
Loading historical data...
Loading historical data...
Loading historical data...
Other satellites on launch #110 in the year 2022 (2022-09-07 UTC)

Documentation

Showing up to 5 results
|